Weather History for London-Corbin, KY

Change the Weather History Date:

Saturday, July 20, 2013

  Actual Average Record
Temperature  
Mean Temperature 78 °F 76 °F  
Max Temperature 88 °F 86 °F 95 °F (2008)
Min Temperature 68 °F 66 °F 54 °F (2009)
Degree Days  
Heating Degree Days 0 0  
Month to date heating degree days 0 0  
Since 1 June heating degree days 0 9  
Since 1 July heating degree days 0 0  
Cooling Degree Days 13 11  
Month to date cooling degree days 205 220  
Year to date cooling degree days 536 577  
Since 1 June cooling degree days 436 463  
Growing Degree Days 28 (Base 50)    
Moisture  
Dew Point 69 °F    
Average Humidity 73    
Maximum Humidity 100    
Minimum Humidity 46    
Precipitation  
Precipitation 0.00 in 0.12 in 1.23 in (2001)
Month to date precipitation 6.49 2.63  
Year to date precipitation 36.74 27.56  
Sea Level Pressure  
Sea Level Pressure 29.97 in    
Wind  
Wind Speed 5 mph (WSW)    
Max Wind Speed 14 mph    
Max Gust Speed 21 mph    
Visibility 7 miles    
Events Fog    
T = Trace of Precipitation, MM = Missing Value Source: NWS Daily Summary

Daily Weather History Graph

Daily Weather History Graph

Search for Another Location

Airport:

Trip Planner

Search our weather history database for the weather conditions in past years. The results will help you decide how hot, cold, wet, or windy it might be!

Date:

Astronomy

Jul. 20, 2013 Rise Set
Actual Time 6:32 AM EDT 8:52 PM EDT
Civil Twilight 6:02 AM EDT 9:22 PM EDT
Nautical Twilight 5:25 AM EDT 9:58 PM EDT
Astronomical Twilight 4:45 AM EDT 10:38 PM EDT
Moon 6:55 PM EDT (7/20) 4:10 AM EDT (7/20)
Length of Visible Light 15h 20m
Length of Day
14h 20m
Waxing Gibbous, 93% of the Moon is Illuminated
Jul 20
Waxing Gibbous
Jul 22
Full
Jul 29
Last Quarter
Aug 6
New
Aug 14
First Quarter

Hourly Weather History & Observations

Time (EDT) Temp. Heat Index Dew Point Humidity Pressure Visibility Wind Dir Wind Speed Gust Speed Precip Events Conditions
12:53 AM 72.0 °F - 70.0 °F 93% 29.99 in 7.0 mi Calm Calm - N/A   Clear
1:53 AM 71.1 °F - 70.0 °F 96% 29.99 in 6.0 mi Calm Calm - N/A   Clear
2:53 AM 70.0 °F - 69.1 °F 97% 29.98 in 4.0 mi Calm Calm - N/A   Scattered Clouds
3:03 AM 69.8 °F - 69.8 °F 100% 30.01 in 5.0 mi Calm Calm - N/A   Mostly Cloudy
3:12 AM 69.8 °F - 69.8 °F 100% 30.01 in 1.2 mi Calm Calm - N/A   Overcast
3:19 AM 69.8 °F - 69.8 °F 100% 30.01 in 0.2 mi Calm Calm - N/A Fog Fog
3:53 AM 69.1 °F - 69.1 °F 100% 29.97 in 0.2 mi Calm Calm - N/A Fog Fog
4:09 AM 69.8 °F - 69.8 °F 100% 30.00 in 1.0 mi Calm Calm - N/A   Mist
4:18 AM 69.8 °F - 69.8 °F 100% 30.00 in 0.5 mi Calm Calm - N/A Fog Fog
4:27 AM 69.8 °F - 69.8 °F 100% 30.00 in 2.0 mi Calm Calm - N/A   Mostly Cloudy
4:32 AM 69.8 °F - 69.8 °F 100% 29.99 in 4.0 mi Calm Calm - N/A   Scattered Clouds
4:53 AM 69.1 °F - 69.1 °F 100% 29.96 in 6.0 mi Calm Calm - N/A   Clear
5:53 AM 69.1 °F - 68.0 °F 96% 29.97 in 6.0 mi South 3.5 mph - N/A   Clear
6:53 AM 68.0 °F - 66.9 °F 96% 29.98 in 4.0 mi Calm Calm - N/A   Clear
7:53 AM 71.1 °F - 69.1 °F 93% 30.00 in 9.0 mi Calm Calm - N/A   Clear
8:53 AM 75.0 °F - 71.1 °F 87% 30.00 in 10.0 mi South 4.6 mph - N/A   Clear
9:53 AM 80.1 °F 83.2 °F 70.0 °F 71% 30.00 in 10.0 mi SW 6.9 mph - N/A   Clear
10:53 AM 81.0 °F 84.9 °F 71.1 °F 72% 30.00 in 10.0 mi West 8.1 mph - N/A   Scattered Clouds
11:26 AM 80.6 °F 83.9 °F 69.8 °F 70% 30.04 in 10.0 mi WNW 4.6 mph - N/A   Mostly Cloudy
11:37 AM 82.4 °F 87.2 °F 71.6 °F 70% 30.04 in 10.0 mi WNW 8.1 mph - N/A   Mostly Cloudy
11:53 AM 84.0 °F 89.0 °F 71.1 °F 65% 30.00 in 10.0 mi West 4.6 mph - N/A   Scattered Clouds
12:53 PM 84.9 °F 88.8 °F 69.1 °F 59% 29.98 in 10.0 mi WSW 11.5 mph - N/A   Partly Cloudy
1:53 PM 86.0 °F 88.8 °F 66.9 °F 53% 29.97 in 10.0 mi WSW 16.1 mph 20.7 mph N/A   Partly Cloudy
2:53 PM 87.1 °F 89.9 °F 66.9 °F 51% 29.94 in 10.0 mi West 10.4 mph - N/A   Clear
3:53 PM 87.1 °F 89.2 °F 66.0 °F 49% 29.92 in 10.0 mi WSW 9.2 mph - N/A   Partly Cloudy
4:53 PM 88.0 °F 89.6 °F 64.9 °F 46% 29.91 in 10.0 mi SW 11.5 mph - N/A   Clear
5:13 PM 87.8 °F 89.4 °F 64.4 °F 46% 29.95 in 10.0 mi WSW 10.4 mph - N/A   Scattered Clouds
5:53 PM 88.0 °F 90.7 °F 66.9 °F 49% 29.90 in 10.0 mi SW 8.1 mph - N/A   Clear
6:53 PM 86.0 °F 88.8 °F 66.9 °F 53% 29.91 in 10.0 mi West 8.1 mph - N/A   Clear
7:53 PM 84.9 °F 88.2 °F 68.0 °F 57% 29.92 in 10.0 mi West 4.6 mph - N/A   Clear
8:53 PM 82.0 °F 85.5 °F 69.1 °F 65% 29.92 in 10.0 mi SSW 4.6 mph - N/A   Clear
9:53 PM 77.0 °F - 71.1 °F 82% 29.93 in 10.0 mi Calm Calm - N/A   Clear
10:53 PM 75.0 °F - 71.1 °F 87% 29.95 in 10.0 mi Calm Calm - N/A   Clear
11:53 PM 73.0 °F - 71.1 °F 93% 29.94 in 7.0 mi Calm Calm - N/A   Clear